Volver al catálogo

CZ-6A DEB

ActivoPO
NORAD 55228·DEBRIS·🇨🇳 China

Lanzado Nov 11, 2022 desde Taiyuan Satellite Launch Center

Loading…

Próximos Pases (próximas 24 horas)

TLE

ActualizadoSource: Space-Track

Época: Sep 14, 2026, 04:53 UTC

1 55228U 22151WV  26257.20350971  .00008353  00000-0  10749-2 0  9994
2 55228  98.6238 335.0288 0056970 346.4065  13.5608 14.80247348198310

Sigue CZ-6A DEB en tiempo real con AllMySat

Download on the App Store